Regional Weather Roundup
Issued by NWS Little Rock, AR

Home | Current Version | Previous Version | Graphics & Text | Print | Product List | Glossary On
Versions: 1 2 3 4 5 6 7 8 9 10 11 12 13 14 15 16 17 18 19 20 21 22 23 24 25 26 27 28 29 30 31 32 33 34 35 36 37 38 39 40 41 42 43 44 45 46 47 48 49 50
000
ASUS44 KLZK 270705
RWRLZK

WEATHER ROUNDUP FOR ARKANSAS
NATIONAL WEATHER SERVICE LITTLE ROCK AR
100 AM CST FRI FEB 27 2015

NOTE: "FAIR" INDICATES FEW OR NO CLOUDS BELOW 12,000 FEET WITH NO
SIGNIFICANT WEATHER AND/OR OBSTRUCTIONS TO VISIBILITY.

ARZ001-003-010-029-270800-
NORTHWEST ARKANSAS

CITY           SKY/WX    TMP DP  RH WIND       PRES   REMARKS
FAYETTEVILLE   PTCLDY    17   6  62 N3        30.47S
FORT SMITH     PTCLDY    24   7  48 N10       30.50F WCI  14
HARRISON       CLEAR     14   4  64 NW5       30.46R WCI   6
BENTONVILLE    PTCLDY    18   3  53 NE9       30.48S WCI   6
ROGERS         PTCLDY    14   6  70 NE8       30.48R WCI   3
SILOAM SPGS    PTCLDY    16   1  53 NE6       30.49S WCI   7
HIGHFILL       PTCLDY    16   5  62 NE6       30.47R WCI   7
$$

ARZ004-005-016-270800-
NORTH CENTRAL ARKANSAS

CITY           SKY/WX    TMP DP  RH WIND       PRES   REMARKS
BATESVILLE     CLEAR     19   9  63 NW5       30.50R WCI  13
FLIPPIN        CLEAR     18   3  53 N8        30.49R WCI   7
MTN HOME       CLEAR     15   4  61 VRB5      30.48R WCI   8
$$

ARZ040-041-270800-
WEST CENTRAL ARKANSAS

CITY           SKY/WX    TMP DP  RH WIND       PRES   REMARKS
MENA           CLEAR     28  14  54 NE7       30.42S WCI  21
MOUNT IDA      CLEAR     26  12  55 CALM      30.42S
$$

ARZ009-017-025-026-028-270800-
NORTHEAST ARKANSAS

CITY           SKY/WX    TMP DP  RH WIND       PRES   REMARKS
CORNING        FAIR      23  10  58 N12G17    30.52R WCI  12
JONESBORO      CLOUDY    24  13  62 N12       30.50R WCI  13
NEWPORT        CLOUDY    25  16  68 N10       30.52R WCI  15
WALNUT RIDGE   CLEAR     21   9  58 N10       30.51S WCI  10
BLYTHEVILLE    PTCLDY    22  17  81 N15       30.50R WCI   9
$$

ARZ022-023-033-042-044-270800-
CENTRAL ARKANSAS

CITY           SKY/WX    TMP DP  RH WIND       PRES   REMARKS
LITTLE ROCK    CLEAR     26  11  52 N13       30.50R WCI  15
N LITTLE ROCK    N/A     23  16  75 NE9       30.50R WCI  13
JACKSONVILLE   CLEAR     23  11  61 N8        30.49R WCI  14
SEARCY         CLEAR     21  13  71 N8        30.51S WCI  11
HOT SPRINGS    CLEAR     27  12  53 CALM      30.46R
RUSSELLVILLE   CLEAR     25   7  46 N7        30.49R WCI  17
CLINTON        FAIR      21  10  63 NE3       30.51S
$$

ARZ036-270800-
EAST ARKANSAS

CITY           SKY/WX    TMP DP  RH WIND       PRES   REMARKS
WEST MEMPHIS   CLOUDY    26  18  71 N17G24    30.46R WCI  13
$$

ARZ050-053-066-070-073-270800-
SOUTHWEST ARKANSAS

CITY           SKY/WX    TMP DP  RH WIND       PRES   REMARKS
CAMDEN         MIX PCPN  27  19  74 MISG      30.45F
TEXARKANA      MOCLDY    30  19  63 NE8       30.41F WCI  22
EL DORADO      PTCLDY    28  23  81 N7        30.43F WCI  21
DE QUEEN       CLEAR     28  13  53 NE7       30.41F WCI  21
$$

ARZ056-057-069-270800-
SOUTHEAST ARKANSAS

CITY           SKY/WX    TMP DP  RH WIND       PRES   REMARKS
PINE BLUFF     CLEAR     26  16  65 N10       30.47R WCI  16
STUTTGART      CLEAR     25  16  68 N15       30.48R WCI  12
MONTICELLO     CLEAR     28  18  66 NE9       30.45R WCI  19

$$




USA.gov is the U.S. government's official web portal to all federal, state and local government web resources and services.